Location: *
(48.8489°N, 2.3218°E)
Time: 17:09:01
(UTC+00:00)

Aureole 1 Rocket - Pass Details

Date: 23 August 2019
Orbit: 379 x 1383 km, 73.9° (Epoch: 15 October)

Event Time Altitude Azimuth Distance (km) Brightness Sun altitude
Rises 23:10:14 0° 336° (NNW) 4,366 8.5 -29.1°
Reaches altitude 10° 23:13:17 10° 337° (NNW) 3,314 7.7 -29.2°
Maximum altitude 23:21:19 84° 66° (ENE) 1,132 4.2 -29.5°
Enters shadow 23:21:58 75° 133° (SE) 1,142 4.1 -29.5°
